This demonstration page uses our WeatherBlox Daily Observations layout. Learn more.

Left ArrowRight Arrow

39.08367, -84.50855

Hourly Observations for April 24, 2020

Temp ( °F °C ) Dew Point ( °F °C ) Humidity (%) Winds ( mph kmh ) Pressure ( in mb ) Visibility ( mi km ) Precip ( " mm )
12:19 am 00:19 Cloudy with Light Rain 55 12.8 53 11.7 93 93 NNE 5 7 29.63 1003 8 13 0.00 0.00
12:39 am 00:39 Cloudy with Mist and Fog 55 12.8 53 11.7 93 93 N 5 7 29.63 1003 6 10 0.00 0.00
12:53 am 00:53 Cloudy 55 12.8 54 12.2 96 96 N 5 7 29.63 1003 7 11 0.01 0.25
1:33 am 01:33 Cloudy with Light Rain 55 12.8 54 12.2 96 96 N 3 6 29.64 1004 4 6 0.00 0.00
1:51 am 01:51 Cloudy with Light Rain 55 13 54 12 94 94 N 3 6 29.64 1004 3 4 0.02 0.51
1:53 am 01:53 Cloudy with Light Rain 55 12.8 54 12.2 96 96 NNE 3 6 29.64 1004 3 4 0.02 0.51
1:57 am 01:57 Cloudy with Light Rain 55 12.8 54 12.2 96 96 NNE 3 6 29.64 1004 3 5 0.00 0.00
2:53 am 02:53 Cloudy with Light Rain 55 12.8 54 12.2 96 96 N 5 7 29.63 1003 7 11 0.02 0.51
3:32 am 03:32 Cloudy 55 12.8 54 12.2 96 96 NNW 5 7 29.64 1004 10 16 0.00 0.00
3:40 am 03:40 Cloudy 55 12.8 54 12.2 96 96 NNE 5 7 29.63 1003 10 16 0.00 0.00
3:53 am 03:53 Cloudy 55 12.8 54 12.2 96 96 NNE 6 9 29.62 1003 10 16 0.00 0.00
4:35 am 04:35 Cloudy 55 12.8 53 11.7 93 93 NNW 5 7 29.65 1004 10 16 0.00 0.00
4:53 am 04:53 Cloudy 55 12.8 53 11.7 93 93 NNW 12 19 29.66 1004 10 16 0.00 0.00
5:53 am 05:53 Cloudy 53 11.7 51 10.6 93 93 N 13 20 29.68 1005 10 16 0.01 0.25
6:53 am 06:53 Cloudy 52 11.1 50 10 93 93 N 9 15 29.72 1006 8 13 0.00 0.00
7:53 am 07:53 Cloudy with Mist and Fog 51 10.6 49 9.4 92 92 N 9 15 29.75 1008 5 8 0.00 0.00
8:53 am 08:53 Cloudy with Mist and Fog 52 11.1 49 9.4 89 89 NNW 10 17 29.78 1008 6 10 0.00 0.00
9:53 am 09:53 Cloudy with Haze 53 11.7 48 8.9 83 83 NNW 10 17 29.80 1009 6 10 0.00 0.00
10:53 am 10:53 Mostly Cloudy 55 12.8 49 9.4 80 80 N 10 17 29.82 1010 8 13 0.00 0.00
11:00 am 11:00 Cloudy 55 12.8 49 9.4 80 80 N 8 13 29.83 1010 8 13 0.00 0.00
11:53 am 11:53 Mostly Cloudy 60 15.6 50 10 70 70 NE 10 17 29.84 1011 10 16 0.00 0.00
12:53 pm 12:53 Mostly Cloudy 63 17.2 50 10 63 63 N 10 17 29.84 1011 10 16 0.00 0.00
1:53 pm 13:53 Mostly Cloudy 64 17.8 49 9.4 58 58 NE 8 13 29.84 1010 10 16 0.00 0.00
2:53 pm 14:53 Mostly Cloudy 65 18.3 49 9.4 56 56 VRB 5 7 29.85 1011 10 16 0.00 0.00
3:53 pm 15:53 Mostly Cloudy 66 18.9 49 9.4 54 54 ESE 7 11 29.84 1011 10 16 0.00 0.00
4:53 pm 16:53 Mostly Cloudy 67 19.4 49 9.4 53 53 VRB 5 7 29.83 1010 10 16 0.00 0.00
5:53 pm 17:53 Mostly Sunny 67 19.4 48 8.9 51 51 Calm 29.83 1010 10 16 0.00 0.00
6:53 pm 18:53 Mostly Cloudy 66 18.9 48 8.9 52 52 Calm 29.84 1010 10 16 0.00 0.00
7:53 pm 19:53 Mostly Sunny 62 16.7 48 8.9 60 60 E 3 6 29.84 1011 10 16 0.00 0.00
8:53 pm 20:53 Clear 56 13.3 51 10.6 84 84 Calm 29.87 1012 10 16 0.00 0.00
9:53 pm 21:53 Clear 52 11.1 50 10 93 93 Calm 29.89 1012 10 16 0.00 0.00
10:53 pm 22:53 Clear 50 10 49 9.4 96 96 Calm 29.89 1012 8 13 0.00 0.00
11:40 pm 23:40 Clear with Mist and Fog 49 9.4 49 9.4 100 100 Calm 29.90 1012 2 3 0.00 0.00
11:48 pm 23:48 Clear with Mist and Fog 48 9 48 9 100 100 Calm 29.90 1013 4 6 0.00 0.00
11:53 pm 23:53 Clear with Mist and Fog 49 9.4 48 8.9 97 97 Calm 29.89 1012 6 10 0.00 0.00

Powered by AerisWeather